CZ-4 DEB

Satellite information

Favourite Embed

Satellite Type and Status

DEBRISIN ORBIT

Key statistics

Satellite CZ-4 DEB at a glance.

Uptime

9505

Days in orbit

Revolutions

≈ 14.6

Per day

Orbit

SSO

Sun Synchronous Orbit

Inclination

98.5

Latest

Satellite identification and parameters

Extended collection of information and parameters for CZ-4 DEB.

Object identification

Identified? True

Debris? True

Object name: CZ-4 DEB

International designator: 1999-057SN

Object number (NORAD): 35334

Object ID (CCSDS): 35334

Country: PEOPLES REPUBLIC OF CHINA (PRC)

Current information (Y/N): Y

RCS size: SMALL

Orbital parameters

Period: 98.7 minutes

Inclination: 98.4615 deg

SMA: 7074.626 km

Apoapsis: 742.044 km

Periapsis: 650.938 km

RAAN: 351.0569 deg

Eccentricy: 0.0064389

Argument of periapsis: 38.5561 deg

Mean anomaly: 322.0211 deg

Mean motion: 14.58973932 rev/day

Mean motion (dot): 0.00005259 rev/day2

B* drag term: 0.0010989 1/REarth

Two-line elements (TLE)

Creation date: Oct. 20, 2025, 6:36 a.m.

Reference frame: TEME

Reference center: EARTH

Epoch: Oct. 19, 2025, 9:01 p.m. UTC

TLE line 0: 0 CZ-4 DEB

TLE line 1: 1 35334U 99057SN 25292.87582448 .00005259 00000-0 10989-2 0 9994

TLE line 2: 2 35334 98.4615 351.0569 0064389 38.5561 322.0211 14.58973932 33356

Live tracking on map

Real-time ground track for satellite CZ-4 DEB.

In-orbit conjunctions

A list of the most updated potential collisions computed for object CZ-4 DEB.

Target Orbit TCA Probability of collision Miss distance Type
THOR ABLESTAR DEB LEO 2025-05-14 09:13:17 0.0001174959 766.0 (m) DEBRIS
FENGYUN 1C DEB SSO 2025-02-18 10:27:36 0.000181722 161.0 (m) DEBRIS
IRIDIUM 33 DEB LEO 2024-11-12 14:08:16 0.0002974877 309.0 (m) DEBRIS

Associated space launch

The CBERS (China Brazil Earth Resources Satellite) or ZY 1 (Zi Yuan) satellites are designed for global coverage and include cameras to make optical observations and a data collecting system to gather data on the environment. They are unique systems due to the use of on-board sensors which combine features that are especially designed to resolve the broad range of space and time scales involved in the monitoring and preservation of the ecosystem. They are operated jointly by the China Centre for Resources Satellite Data and Application (CRESDA) and the Brazilian INPE (Instituto Nacional de Pesquisas Espaciais, National Institute of Space Research).

CZ-4 DEB was lifted into orbit during the mission ‘Long March 4B | Zi Yuan 1-1’, on board a Long March 4B space rocket.

The launch took place on Oct. 14, 1999, 3:15 a.m. from Launch Complex 7.

For more information about the launch, click the button.

Launch to space Long March 4B | Zi Yuan 1-1
Long March 4B | Zi Yuan 1-1

Agency: N/A

Status: Launch Successful

Launch date: Oct. 14, 1999, 3:15 a.m. UTC

Rocket: Long March 4B

Launch pad: Launch Complex 7

Location: Taiyuan Satellite Launch Center, People's Republic of China

...

Latest news about this satellite

There are no fresh news available about this satellite. Check back as we update our databases every day.


Newsletter sign-up

Weekly statistics, charts and insights to help you stay on top of the space industry.